STARLINK-35716, 67191

Orbit data source: Space-Track

STARLINK-35716, 67191 is a payload satellite owned by SpaceX/Seattle (US) in LEO that was launched on Wed, 17 Dec 2025 UTC via an FALCON 9 launch vehicle from the Air Force Eastern Test Range (AFETR). Payload-class satellites include a variety of spacecraft equipped with specific instruments for various scientific and technological missions. These include communications satellites like Starlink; space stations such as the ISS; scientific satellites like the Hubble; Earth observation satellites from companies like Planet Labs, Umbra, and HawkEye 360; GPS; miniature CubeSats for education and research; and military/defense satellites.

Loading next visibility...
Identifier
67191, 2025-303AE
Orbit
LEO
Country
Flag of USUS
Related business
Manufacturer
SpaceX/Seattle
Mission
Operational Commercial Communications
Bus & Motor
STARLINK V2MO, Unknown motor
Mass
575 kg wet, ~530 kg dry
Launch date (UTC)
2025-12-17 (6 months ago)
Launch vehicle
FALCON 9
Launch site
Air Force Eastern Test Range (AFETR)
Object type
Payload
Rocket body
Debris
Shape & HBR
Box + 2 Pan, 17.7 m
Radar Cross Section
36.964 m², Large (>1 m²)

Expand to show TLE details & history
Last TLE update: 18 hours ago

TLE from 18 hours ago
0 STARLINK-35716
1 67191U 25303AE  26171.10712624  .00014660  00000-0  54086-3 0  9990
2 67191  43.0034  92.7357 0001477 271.3183  88.7500 15.27600327 28390
Epoch: 2026-06-20T02:34Z
TLE epoch observation values (Epoch: 2026-06-20T02:34:15.707Z)
Latitude
0.00003°
Longitude
145.84379°
Altitude
482.742 km
Speed
7.626 km/s
True Right ascension
06h 10m 56s
True Declination
0° 00' 00"
Sunlit
Object was in daylight at epoch
Visualization orbit readout
Latitude
Unknown
Longitude
Unknown
Altitude
Unknown
Speed
Unknown
Apparent Right ascension
Unknown
Apparent Declination
Unknown
Sunlit
N/A
Visualization observer readout
Local Sidereal Time
07:12:17
Azimuth
Unknown
Elevation
Unknown
Doppler factor
Unknown
Orbital elements
Apogee altitude
485.947 km
Perigee altitude
483.919 km
Semi-major axis
6,863.07 km
Eccentricity
0.00015
Inclination
43.0034°
RAAN
92.7357°
Arg. of periapsis
271.3183°
True anomaly
88.76692°
Mean anomaly
88.75°
Eccentric anomaly
88.75846°
Mean motion
3.81738 °/min
Orbital period
94.31 mins
BSTAR
0.00054086
Loading maneuver chart data...
Computing Atmospheric mass density...
Loading historical data...
Loading historical data...
Loading historical data...
Loading historical data...
Loading historical data...
Loading historical data...
Loading historical data...

Documentation

Showing up to 5 results
|